Location: Champaign/Urbana Astronomical Society Observatory
(40.0333°N, 88.2833°W)
Time: 02:14:08
(UTC-05:00)

DX 1 - Visible Passes

Search period start: 20 October 2019 00:00
Search period end: 30 October 2019 00:00
Orbit: 619 x 631 km, 98.4° (Epoch: 20 October)

Date Brightness Start Highest point End Pass type
(mag) Time Alt. Az. Time Alt. Az. Time Alt. Az.
20 Oct ? 19:07:39 10° NW 19:08:48 11° WNW 19:09:58 10° WNW visible
23 Oct ? 18:25:55 10° N 18:29:36 28° WNW 18:33:16 10° SW visible
24 Oct ? 18:45:19 10° NNW 18:48:16 18° WNW 18:51:13 10° WSW visible
25 Oct ? 19:05:17 10° NW 19:06:54 12° WNW 19:08:30 10° W visible
28 Oct ? 18:23:53 10° N 18:27:39 30° WNW 18:31:24 10° SW visible
29 Oct ? 18:43:14 10° NNW 18:46:20 20° WNW 18:49:26 10° WSW visible
